Time,TemperatureF,DewpointF,PressureIn,WindDirection,WindDirectionDegrees,WindSpeedMPH,WindSpeedGustMPH,Humidity,HourlyPrecipIn,Conditions,Clouds,dailyrainin,SolarRadiationWatts/m^2,SoftwareType,DateUTC
2013-04-29 00:00:00,66.5,66.2,30.03,West,272,0.0,0.0,99,0.00,CLR,,0.02,0.0,WeatherDisplay:10.37,2013-04-28 14:00:00,
2013-04-29 00:05:00,66.4,66.1,30.03,West,270,0.0,0.0,99,0.00,CLR,,0.02,0.0,WeatherDisplay:10.37,2013-04-28 14:05:00,
2013-04-29 00:10:00,66.4,66.1,30.03,West,260,0.0,0.0,99,0.00,CLR,,0.02,0.0,WeatherDisplay:10.37,2013-04-28 14:10:00,
2013-04-29 00:15:00,66.8,66.5,30.02,WSW,243,1.0,3.0,99,0.00,CLR,,0.02,0.0,WeatherDisplay:10.37,2013-04-28 14:15:00,
2013-04-29 00:20:00,66.5,66.2,30.02,West,260,1.0,3.0,99,0.00,CLR,,0.02,0.0,WeatherDisplay:10.37,2013-04-28 14:20:00,
2013-04-29 00:25:00,66.6,66.3,30.02,West,269,1.0,3.0,99,0.00,CLR,,0.02,0.0,WeatherDisplay:10.37,2013-04-28 14:25:00,
2013-04-29 00:30:00,66.7,66.5,30.02,SW,226,2.0,3.0,99,0.00,CLR,,0.02,0.0,WeatherDisplay:10.37,2013-04-28 14:30:00,
2013-04-29 00:35:00,66.7,66.5,30.02,SW,214,1.0,3.0,99,0.00,CLR,,0.02,0.0,WeatherDisplay:10.37,2013-04-28 14:35:00,
2013-04-29 00:40:00,66.9,66.6,30.02,WSW,243,1.0,3.0,99,0.00,CLR,,0.02,0.0,WeatherDisplay:10.37,2013-04-28 14:40:00,
2013-04-29 00:45:00,66.7,66.5,30.02,WNW,284,1.0,2.0,99,0.00,CLR,,0.02,0.0,WeatherDisplay:10.37,2013-04-28 14:45:00,
2013-04-29 00:50:00,67.1,66.8,30.01,North,354,2.0,4.0,99,0.00,CLR,,0.02,0.0,WeatherDisplay:10.37,2013-04-28 14:50:00,
2013-04-29 00:55:00,66.9,66.6,30.02,NNW,336,1.0,3.0,99,0.00,CLR,,0.02,0.0,WeatherDisplay:10.37,2013-04-28 14:55:00,
2013-04-29 01:00:00,66.9,66.6,30.01,NW,325,1.0,3.0,99,0.00,CLR,,0.02,0.0,WeatherDisplay:10.37,2013-04-28 15:00:00,
2013-04-29 01:05:00,66.9,66.6,30.01,North,357,1.0,3.0,99,0.00,CLR,,0.02,0.0,WeatherDisplay:10.37,2013-04-28 15:05:00,
2013-04-29 01:10:00,66.9,66.6,30.01,North,11,2.0,4.0,99,0.00,CLR,,0.02,0.0,WeatherDisplay:10.37,2013-04-28 15:10:00,
2013-04-29 01:15:00,67.0,66.7,30.01,NNW,339,2.0,4.0,99,0.00,CLR,,0.02,0.0,WeatherDisplay:10.37,2013-04-28 15:15:00,
2013-04-29 01:20:00,66.9,66.6,30.02,NNW,332,1.0,3.0,99,0.00,CLR,,0.02,0.0,WeatherDisplay:10.37,2013-04-28 15:20:00,
2013-04-29 01:25:00,66.7,66.5,30.01,NNW,346,3.0,5.0,99,0.00,CLR,,0.02,0.0,WeatherDisplay:10.37,2013-04-28 15:25:00,
2013-04-29 01:30:00,66.7,66.5,30.01,NNW,345,2.0,6.0,99,0.00,CLR,,0.02,0.0,WeatherDisplay:10.37,2013-04-28 15:30:00,
2013-04-29 01:35:00,66.7,66.5,30.01,NNW,331,1.0,4.0,99,0.00,CLR,,0.02,0.0,WeatherDisplay:10.37,2013-04-28 15:35:00,
2013-04-29 01:40:00,66.3,66.0,30.01,NW,315,0.0,2.0,99,0.00,CLR,,0.02,0.0,WeatherDisplay:10.37,2013-04-28 15:40:00,
2013-04-29 01:45:00,66.7,66.5,30.01,NNW,335,1.0,2.0,99,0.00,CLR,,0.02,0.0,WeatherDisplay:10.37,2013-04-28 15:45:00,
2013-04-29 01:50:00,66.9,66.6,30.01,North,357,1.0,3.0,99,0.00,CLR,,0.02,0.0,WeatherDisplay:10.37,2013-04-28 15:50:00,
2013-04-29 01:55:00,66.9,66.6,30.01,NNE,15,2.0,3.0,99,0.00,CLR,,0.02,0.0,WeatherDisplay:10.37,2013-04-28 15:55:00,
2013-04-29 02:00:00,66.9,66.6,30.01,NE,37,1.0,3.0,99,0.00,CLR,,0.02,0.0,WeatherDisplay:10.37,2013-04-28 16:00:00,
2013-04-29 02:05:00,67.0,66.8,30.01,NNE,18,0.0,2.0,99,0.00,CLR,,0.02,0.0,WeatherDisplay:10.37,2013-04-28 16:05:00,
2013-04-29 02:10:00,67.1,66.8,30.01,WNW,283,1.0,3.0,99,0.00,CLR,,0.02,0.0,WeatherDisplay:10.37,2013-04-28 16:10:00,
2013-04-29 02:15:00,67.1,66.8,30.01,WSW,255,0.0,4.0,99,0.00,CLR,,0.02,0.0,WeatherDisplay:10.37,2013-04-28 16:15:00,
2013-04-29 02:20:00,67.6,67.3,30.01,SE,128,3.0,7.0,99,0.00,CLR,,0.02,0.0,WeatherDisplay:10.37,2013-04-28 16:20:00,
2013-04-29 02:25:00,68.0,67.7,30.01,SE,132,2.0,6.0,99,0.00,CLR,,0.02,0.0,WeatherDisplay:10.37,2013-04-28 16:25:00,
2013-04-29 02:30:00,68.2,67.9,30.01,SE,143,3.0,6.0,99,0.00,CLR,,0.02,0.0,WeatherDisplay:10.37,2013-04-28 16:30:00,
2013-04-29 02:35:00,68.4,67.8,30.01,SSE,149,2.0,6.0,98,0.00,CLR,,0.02,0.0,WeatherDisplay:10.37,2013-04-28 16:35:00,
2013-04-29 02:40:00,68.2,67.3,30.01,SSE,154,1.0,3.0,97,0.00,CLR,,0.02,0.0,WeatherDisplay:10.37,2013-04-28 16:40:00,
2013-04-29 02:45:00,68.2,67.3,30.01,South,170,2.0,4.0,97,0.00,CLR,,0.02,0.0,WeatherDisplay:10.37,2013-04-28 16:45:00,
2013-04-29 02:50:00,68.0,66.8,30.01,South,175,0.0,3.0,96,0.00,CLR,,0.02,0.0,WeatherDisplay:10.37,2013-04-28 16:50:00,
2013-04-29 02:55:00,68.0,66.8,30.01,SSE,167,0.0,2.0,96,0.00,CLR,,0.02,0.0,WeatherDisplay:10.37,2013-04-28 16:55:00,
2013-04-29 03:00:00,68.0,66.8,30.01,SE,138,0.0,1.0,96,0.00,CLR,,0.02,0.0,WeatherDisplay:10.37,2013-04-28 17:00:00,
2013-04-29 03:05:00,68.0,66.8,30.00,SSE,157,1.0,2.0,96,0.00,CLR,,0.02,0.0,WeatherDisplay:10.37,2013-04-28 17:05:00,
2013-04-29 03:10:00,67.6,66.8,30.00,South,185,2.0,4.0,97,0.00,CLR,,0.02,0.0,WeatherDisplay:10.37,2013-04-28 17:10:00,
2013-04-29 03:15:00,67.6,66.8,30.00,South,187,3.0,6.0,97,0.00,CLR,,0.02,0.0,WeatherDisplay:10.37,2013-04-28 17:15:00,
2013-04-29 03:20:00,67.6,67.0,30.00,South,172,5.0,6.0,98,0.00,CLR,,0.02,0.0,WeatherDisplay:10.37,2013-04-28 17:20:00,
2013-04-29 03:25:00,68.2,67.3,30.00,South,173,1.0,6.0,97,0.00,CLR,,0.02,0.0,WeatherDisplay:10.37,2013-04-28 17:25:00,
2013-04-29 03:30:00,68.1,66.9,30.00,SW,223,0.0,3.0,96,0.00,CLR,,0.02,0.0,WeatherDisplay:10.37,2013-04-28 17:30:00,
2013-04-29 03:35:00,68.0,66.8,30.00,West,260,0.0,2.0,96,0.00,CLR,,0.02,0.0,WeatherDisplay:10.37,2013-04-28 17:35:00,
2013-04-29 03:40:00,67.8,66.9,30.00,West,264,0.0,1.0,97,0.00,CLR,,0.02,0.0,WeatherDisplay:10.37,2013-04-28 17:40:00,
2013-04-29 03:45:00,67.7,66.8,30.00,WSW,237,0.0,1.0,97,0.00,CLR,,0.02,0.0,WeatherDisplay:10.37,2013-04-28 17:45:00,
2013-04-29 03:50:00,67.6,66.8,30.00,SSW,199,1.0,2.0,97,0.00,CLR,,0.02,0.0,WeatherDisplay:10.37,2013-04-28 17:50:00,
2013-04-29 03:55:00,67.6,66.7,30.00,SSW,209,1.0,2.0,97,0.00,CLR,,0.02,0.0,WeatherDisplay:10.37,2013-04-28 17:55:00,
2013-04-29 04:00:00,67.4,66.6,30.00,SW,221,1.0,2.0,97,0.00,CLR,,0.02,0.0,WeatherDisplay:10.37,2013-04-28 18:00:00,
2013-04-29 04:05:00,67.3,66.7,30.00,SSW,212,2.0,3.0,98,0.00,CLR,,0.02,0.0,WeatherDisplay:10.37,2013-04-28 18:05:00,
2013-04-29 04:10:00,67.3,66.7,30.00,SSW,207,2.0,4.0,98,0.00,CLR,,0.02,0.0,WeatherDisplay:10.37,2013-04-28 18:10:00,
2013-04-29 04:15:00,67.3,66.7,30.00,South,189,3.0,4.0,98,0.00,CLR,,0.02,0.0,WeatherDisplay:10.37,2013-04-28 18:15:00,
2013-04-29 04:20:00,67.4,66.8,29.99,SSW,210,1.0,3.0,98,0.00,CLR,,0.02,0.0,WeatherDisplay:10.37,2013-04-28 18:20:00,
2013-04-29 04:25:00,67.4,66.8,29.99,West,270,1.0,2.0,98,0.00,CLR,,0.02,0.0,WeatherDisplay:10.37,2013-04-28 18:25:00,
2013-04-29 04:30:00,66.9,66.3,30.00,WNW,290,1.0,2.0,98,0.00,CLR,,0.02,0.0,WeatherDisplay:10.37,2013-04-28 18:30:00,
2013-04-29 04:35:00,66.6,66.0,30.00,NNW,328,1.0,3.0,98,0.00,CLR,,0.02,0.0,WeatherDisplay:10.37,2013-04-28 18:35:00,
2013-04-29 04:40:00,66.0,65.7,29.99,NNW,334,1.0,3.0,99,0.00,CLR,,0.02,0.0,WeatherDisplay:10.37,2013-04-28 18:40:00,
2013-04-29 04:45:00,66.0,65.7,29.99,WSW,252,1.0,3.0,99,0.00,CLR,,0.02,0.0,WeatherDisplay:10.37,2013-04-28 18:45:00,
2013-04-29 04:50:00,65.7,65.4,30.00,South,191,1.0,3.0,99,0.00,CLR,,0.02,0.0,WeatherDisplay:10.37,2013-04-28 18:50:00,
2013-04-29 04:55:00,65.7,65.4,30.00,NE,46,0.0,2.0,99,0.00,CLR,,0.02,0.0,WeatherDisplay:10.37,2013-04-28 18:55:00,
2013-04-29 05:00:00,65.7,65.4,30.00,NE,45,0.0,1.0,99,0.00,CLR,,0.02,0.0,WeatherDisplay:10.37,2013-04-28 19:00:00,
2013-04-29 05:05:00,65.7,65.4,30.00,NE,45,0.0,1.0,99,0.00,CLR,,0.02,0.0,WeatherDisplay:10.37,2013-04-28 19:05:00,
2013-04-29 05:10:00,65.5,65.2,30.00,NE,45,0.0,0.0,99,0.00,CLR,,0.02,0.0,WeatherDisplay:10.37,2013-04-28 19:10:00,
2013-04-29 05:15:00,65.3,65.0,30.00,NE,34,0.0,1.0,99,0.00,CLR,,0.02,0.0,WeatherDisplay:10.37,2013-04-28 19:15:00,
2013-04-29 05:20:00,65.2,64.9,30.00,NW,314,1.0,4.0,99,0.00,CLR,,0.02,0.0,WeatherDisplay:10.37,2013-04-28 19:20:00,
2013-04-29 05:25:00,65.3,65.0,30.00,NW,317,1.0,4.0,99,0.00,CLR,,0.02,0.0,WeatherDisplay:10.37,2013-04-28 19:25:00,
2013-04-29 05:30:00,65.3,65.0,30.00,NNW,329,0.0,4.0,99,0.00,CLR,,0.02,0.0,WeatherDisplay:10.37,2013-04-28 19:30:00,
2013-04-29 05:35:00,65.3,65.0,30.00,NE,34,1.0,4.0,99,0.00,CLR,,0.02,0.0,WeatherDisplay:10.37,2013-04-28 19:35:00,
2013-04-29 05:40:00,65.0,64.7,30.01,North,0,0.0,3.0,99,0.00,CLR,,0.02,0.0,WeatherDisplay:10.37,2013-04-28 19:40:00,
2013-04-29 05:45:00,64.9,64.7,30.00,South,180,0.0,2.0,99,0.00,CLR,,0.02,0.0,WeatherDisplay:10.37,2013-04-28 19:45:00,
2013-04-29 05:50:00,64.8,64.5,30.01,SSE,156,1.0,5.0,99,0.00,CLR,,0.02,0.0,WeatherDisplay:10.37,2013-04-28 19:50:00,
2013-04-29 05:55:00,64.6,64.3,30.01,SSE,158,0.0,2.0,99,0.00,CLR,,0.02,0.0,WeatherDisplay:10.37,2013-04-28 19:55:00,
2013-04-29 06:00:00,64.6,64.3,30.01,SW,229,0.0,0.0,99,0.00,CLR,,0.02,0.0,WeatherDisplay:10.37,2013-04-28 20:00:00,
2013-04-29 06:05:00,64.4,64.1,30.01,NNW,344,1.0,3.0,99,0.00,CLR,,0.02,0.0,WeatherDisplay:10.37,2013-04-28 20:05:00,
2013-04-29 06:10:00,64.2,63.4,30.01,North,0,0.0,2.0,97,0.00,CLR,,0.02,0.0,WeatherDisplay:10.37,2013-04-28 20:10:00,
2013-04-29 06:15:00,64.0,63.2,30.02,SSW,210,0.0,2.0,97,0.00,CLR,,0.02,0.0,WeatherDisplay:10.37,2013-04-28 20:15:00,
2013-04-29 06:20:00,64.0,63.2,30.02,ESE,106,0.0,2.0,97,0.00,CLR,,0.02,0.0,WeatherDisplay:10.37,2013-04-28 20:20:00,
2013-04-29 06:25:00,64.0,63.2,30.02,NNE,15,0.0,2.0,97,0.00,CLR,,0.02,0.0,WeatherDisplay:10.37,2013-04-28 20:25:00,
2013-04-29 06:30:00,63.9,63.0,30.02,North,352,0.0,1.0,97,0.00,CLR,,0.02,0.0,WeatherDisplay:10.37,2013-04-28 20:30:00,
2013-04-29 06:35:00,63.7,62.8,30.02,NW,323,0.0,0.0,97,0.00,CLR,,0.02,3.2,WeatherDisplay:10.37,2013-04-28 20:35:00,
2013-04-29 06:40:00,63.3,62.4,30.03,NW,315,0.0,0.0,97,0.00,CLR,,0.02,6.7,WeatherDisplay:10.37,2013-04-28 20:40:00,
2013-04-29 06:45:00,64.0,63.2,30.02,NW,315,0.0,0.0,97,0.00,CLR,,0.02,12.3,WeatherDisplay:10.37,2013-04-28 20:45:00,
2013-04-29 06:50:00,63.9,63.0,30.03,NW,315,0.0,0.0,97,0.00,BKN,,0.02,18.7,WeatherDisplay:10.37,2013-04-28 20:50:00,
2013-04-29 06:55:00,64.0,63.2,30.03,NW,315,0.0,0.0,97,0.00,BKN,,0.02,37.9,WeatherDisplay:10.37,2013-04-28 20:55:00,
2013-04-29 07:00:00,65.0,64.7,30.03,NW,307,0.0,0.0,99,0.00,BKN,,0.02,55.2,WeatherDisplay:10.37,2013-04-28 21:00:00,
2013-04-29 07:05:00,65.7,65.4,30.03,WNW,283,0.0,0.0,99,0.00,BKN,,0.02,64.0,WeatherDisplay:10.37,2013-04-28 21:05:00,
2013-04-29 07:10:00,66.4,66.1,30.04,WSW,250,1.0,2.0,99,0.00,BKN,,0.02,72.9,WeatherDisplay:10.37,2013-04-28 21:10:00,
2013-04-29 07:15:00,67.0,66.7,30.04,SSW,202,0.0,2.0,99,0.00,SCT,,0.02,96.8,WeatherDisplay:10.37,2013-04-28 21:15:00,
2013-04-29 07:20:00,68.5,68.2,30.04,WSW,238,0.0,1.0,99,0.00,CLR,,0.02,119.7,WeatherDisplay:10.37,2013-04-28 21:20:00,
2013-04-29 07:25:00,69.9,69.0,30.04,West,270,0.0,0.0,97,0.00,CLR,,0.02,119.0,WeatherDisplay:10.37,2013-04-28 21:25:00,
2013-04-29 07:30:00,72.0,70.1,30.04,West,270,0.0,0.0,94,0.00,CLR,,0.02,102.0,WeatherDisplay:10.37,2013-04-28 21:30:00,
2013-04-29 07:35:00,72.8,69.4,30.05,West,270,1.0,2.0,89,0.00,CLR,,0.02,85.0,WeatherDisplay:10.37,2013-04-28 21:35:00,
2013-04-29 07:40:00,73.3,68.8,30.04,West,270,0.0,1.0,86,0.00,CLR,,0.02,69.0,WeatherDisplay:10.37,2013-04-28 21:40:00,
2013-04-29 07:45:00,75.1,69.9,30.05,WSW,255,1.0,3.0,84,0.00,CLR,,0.02,53.0,WeatherDisplay:10.37,2013-04-28 21:45:00,
2013-04-29 07:50:00,74.5,67.9,30.05,West,278,1.0,3.0,80,0.00,CLR,,0.02,37.0,WeatherDisplay:10.37,2013-04-28 21:50:00,
2013-04-29 07:55:00,75.9,69.6,30.05,West,266,0.0,2.0,81,0.00,CLR,,0.02,23.0,WeatherDisplay:10.37,2013-04-28 21:55:00,
2013-04-29 08:00:00,77.5,69.8,30.05,SSW,201,1.0,2.0,77,0.00,CLR,,0.02,8.0,WeatherDisplay:10.37,2013-04-28 22:00:00,
2013-04-29 08:05:00,78.3,69.3,30.05,SW,220,1.0,3.0,74,0.00,OVC,,0.02,353.2,WeatherDisplay:10.37,2013-04-28 22:05:00,
2013-04-29 08:10:00,78.1,69.1,30.05,WSW,258,2.0,4.0,74,0.00,OVC,,0.02,387.8,WeatherDisplay:10.37,2013-04-28 22:10:00,
2013-04-29 08:15:00,77.4,68.5,30.05,WSW,253,1.0,4.0,74,0.00,OVC,,0.02,414.8,WeatherDisplay:10.37,2013-04-28 22:15:00,
2013-04-29 08:20:00,77.4,68.5,30.05,SW,231,1.0,5.0,74,0.00,OVC,,0.02,449.3,WeatherDisplay:10.37,2013-04-28 22:20:00,
2013-04-29 08:25:00,78.6,68.4,30.05,WSW,258,2.0,3.0,71,0.00,OVC,,0.02,503.1,WeatherDisplay:10.37,2013-04-28 22:25:00,
2013-04-29 08:30:00,78.2,68.4,30.05,West,274,1.0,3.0,72,0.00,OVC,,0.02,531.1,WeatherDisplay:10.37,2013-04-28 22:30:00,
2013-04-29 08:35:00,79.2,67.8,30.05,WSW,237,0.0,4.0,68,0.00,OVC,,0.02,574.4,WeatherDisplay:10.37,2013-04-28 22:35:00,
2013-04-29 08:40:00,80.3,67.0,30.05,South,171,1.0,7.0,64,0.00,OVC,,0.02,600.9,WeatherDisplay:10.37,2013-04-28 22:40:00,
2013-04-29 08:45:00,78.3,66.0,30.06,SSE,155,2.0,6.0,66,0.00,OVC,,0.02,626.5,WeatherDisplay:10.37,2013-04-28 22:45:00,
2013-04-29 08:50:00,79.2,67.7,30.06,SSE,158,2.0,5.0,68,0.00,OVC,,0.02,667.8,WeatherDisplay:10.37,2013-04-28 22:50:00,
2013-04-29 08:55:00,80.1,68.1,30.06,SSE,154,2.0,4.0,67,0.00,OVC,,0.02,819.9,WeatherDisplay:10.37,2013-04-28 22:55:00,
2013-04-29 09:00:00,81.2,68.3,30.06,East,94,1.0,6.0,65,0.00,RA,,0.00,940.2,WeatherDisplay:10.37,2013-04-28 23:00:00,
2013-04-29 09:05:00,80.9,66.7,30.06,ESE,121,6.0,8.0,62,0.00,RA,,0.00,884.4,WeatherDisplay:10.37,2013-04-28 23:05:00,
2013-04-29 09:10:00,79.2,66.8,30.06,ESE,110,1.0,8.0,66,0.00,OVC,,0.00,734.2,WeatherDisplay:10.37,2013-04-28 23:10:00,
2013-04-29 09:15:00,81.4,68.5,30.06,ENE,78,5.0,13.0,65,0.00,OVC,,0.00,557.9,WeatherDisplay:10.37,2013-04-28 23:15:00,
2013-04-29 09:20:00,78.1,66.2,30.06,SE,141,8.0,14.0,67,0.00,OVC,,0.00,213.9,WeatherDisplay:10.37,2013-04-28 23:20:00,
2013-04-29 09:25:00,76.6,66.9,30.06,SE,133,10.0,13.0,72,0.00,OVC,,0.00,322.6,WeatherDisplay:10.37,2013-04-28 23:25:00,
2013-04-29 09:30:00,76.5,66.8,30.06,SE,136,7.0,13.0,72,0.00,OVC,,0.00,374.8,WeatherDisplay:10.37,2013-04-28 23:30:00,
2013-04-29 09:35:00,76.6,67.3,30.06,SSE,147,8.0,13.0,73,0.00,OVC,,0.00,274.5,WeatherDisplay:10.37,2013-04-28 23:35:00,
2013-04-29 09:40:00,77.2,67.5,30.07,SE,127,7.0,14.0,72,0.00,OVC,,0.00,378.7,WeatherDisplay:10.37,2013-04-28 23:40:00,
2013-04-29 09:45:00,77.9,68.2,30.06,SE,126,12.0,15.0,72,0.00,OVC,,0.00,365.9,WeatherDisplay:10.37,2013-04-28 23:45:00,
2013-04-29 09:50:00,78.2,67.6,30.07,SE,133,10.0,16.0,70,0.00,OVC,,0.00,381.9,WeatherDisplay:10.37,2013-04-28 23:50:00,
2013-04-29 09:55:00,78.3,67.3,30.07,SE,128,6.0,11.0,69,0.00,OVC,,0.00,801.9,WeatherDisplay:10.37,2013-04-28 23:55:00,
2013-04-29 10:00:00,78.9,67.5,30.06,SE,134,9.0,13.0,68,0.00,OVC,,0.00,518.8,WeatherDisplay:10.37,2013-04-29 00:00:00,
2013-04-29 10:05:00,78.3,66.8,30.07,SE,138,7.0,13.0,68,0.00,OVC,,0.00,646.8,WeatherDisplay:10.37,2013-04-29 00:05:00,
2013-04-29 10:10:00,78.4,67.0,30.07,SE,132,7.0,12.0,68,0.00,OVC,,0.00,612.9,WeatherDisplay:10.37,2013-04-29 00:10:00,
2013-04-29 10:15:00,78.8,66.5,30.06,SE,138,9.0,15.0,66,0.00,OVC,,0.00,1327.4,WeatherDisplay:10.37,2013-04-29 00:15:00,
2013-04-29 10:20:00,79.2,66.8,30.07,SSE,151,8.0,15.0,66,0.00,OVC,,0.00,537.4,WeatherDisplay:10.37,2013-04-29 00:20:00,
2013-04-29 10:25:00,78.8,66.4,30.07,SSE,149,10.0,15.0,66,0.00,OVC,,0.00,868.6,WeatherDisplay:10.37,2013-04-29 00:25:00,
2013-04-29 10:30:00,79.2,66.9,30.06,SSE,153,14.0,17.0,66,0.00,OVC,,0.00,509.9,WeatherDisplay:10.37,2013-04-29 00:30:00,
2013-04-29 10:35:00,79.3,66.5,30.06,SE,134,10.0,20.0,65,0.00,OVC,,0.00,1296.3,WeatherDisplay:10.37,2013-04-29 00:35:00,
2013-04-29 10:40:00,81.4,67.6,30.06,ESE,112,7.0,20.0,63,0.00,OVC,,0.00,1394.2,WeatherDisplay:10.37,2013-04-29 00:40:00,
2013-04-29 10:45:00,81.8,66.6,30.06,ESE,114,12.0,15.0,60,0.00,OVC,,0.00,1438.0,WeatherDisplay:10.37,2013-04-29 00:45:00,
2013-04-29 10:50:00,80.3,66.6,30.06,SE,144,12.0,16.0,63,0.00,OVC,,0.00,616.8,WeatherDisplay:10.37,2013-04-29 00:50:00,
2013-04-29 10:55:00,79.7,66.0,30.06,SE,138,9.0,14.0,63,0.00,OVC,,0.00,471.4,WeatherDisplay:10.37,2013-04-29 00:55:00,
2013-04-29 11:00:00,79.7,66.0,30.06,SE,126,7.0,15.0,63,0.00,OVC,,0.00,1497.4,WeatherDisplay:10.37,2013-04-29 01:00:00,
2013-04-29 11:05:00,80.2,66.0,30.05,SE,139,8.0,12.0,62,0.00,OVC,,0.00,1654.0,WeatherDisplay:10.37,2013-04-29 01:05:00,
2013-04-29 11:10:00,79.9,65.7,30.05,SE,141,8.0,14.0,62,0.00,OVC,,0.00,959.2,WeatherDisplay:10.37,2013-04-29 01:10:00,
2013-04-29 11:15:00,80.5,66.3,30.05,SE,132,7.0,14.0,62,0.00,OVC,,0.00,709.2,WeatherDisplay:10.37,2013-04-29 01:15:00,
2013-04-29 11:20:00,80.3,66.1,30.04,SE,132,8.0,14.0,62,0.00,OVC,,0.00,532.0,WeatherDisplay:10.37,2013-04-29 01:20:00,
2013-04-29 11:25:00,80.0,65.8,30.04,SSE,148,2.0,13.0,62,0.00,OVC,,0.00,1296.1,WeatherDisplay:10.37,2013-04-29 01:25:00,
2013-04-29 11:30:00,81.6,66.4,30.04,SE,145,9.0,13.0,60,0.00,OVC,,0.00,617.3,WeatherDisplay:10.37,2013-04-29 01:30:00,
2013-04-29 11:35:00,80.8,66.5,30.04,SE,132,9.0,13.0,62,0.00,OVC,,0.00,581.8,WeatherDisplay:10.37,2013-04-29 01:35:00,
2013-04-29 11:40:00,80.4,66.7,30.03,SE,136,5.0,10.0,63,0.00,OVC,,0.00,516.4,WeatherDisplay:10.37,2013-04-29 01:40:00,
2013-04-29 11:50:00,80.4,66.7,30.03,SE,133,6.0,12.0,63,0.00,OVC,,0.00,477.4,WeatherDisplay:10.37,2013-04-29 01:50:00,
2013-04-29 11:55:00,80.2,67.4,30.03,SSE,154,5.0,11.0,65,0.00,OVC,,0.00,445.9,WeatherDisplay:10.37,2013-04-29 01:55:00,
2013-04-29 12:00:00,79.5,66.3,30.03,South,184,6.0,11.0,64,0.00,OVC,,0.00,459.5,WeatherDisplay:10.37,2013-04-29 02:00:00,
2013-04-29 12:05:00,79.1,66.3,30.03,South,173,7.0,11.0,65,0.00,OVC,,0.00,384.0,WeatherDisplay:10.37,2013-04-29 02:05:00,
2013-04-29 12:10:00,79.0,66.6,30.02,South,174,7.0,11.0,66,0.00,OVC,,0.00,341.1,WeatherDisplay:10.37,2013-04-29 02:10:00,
2013-04-29 12:15:00,79.0,66.6,30.02,South,171,8.0,11.0,66,0.00,OVC,,0.00,357.3,WeatherDisplay:10.37,2013-04-29 02:15:00,
2013-04-29 12:20:00,78.7,66.8,30.02,SSE,160,10.0,14.0,67,0.00,OVC,,0.00,365.7,WeatherDisplay:10.37,2013-04-29 02:20:00,
2013-04-29 12:25:00,78.8,66.9,30.02,SSE,158,7.0,14.0,67,0.00,OVC,,0.00,321.5,WeatherDisplay:10.37,2013-04-29 02:25:00,
2013-04-29 12:30:00,78.9,67.0,30.01,South,174,8.0,12.0,67,0.00,OVC,,0.00,286.5,WeatherDisplay:10.37,2013-04-29 02:30:00,
2013-04-29 12:35:00,78.5,67.4,30.01,SSE,160,6.0,12.0,69,0.00,OVC,,0.00,404.5,WeatherDisplay:10.37,2013-04-29 02:35:00,
2013-04-29 12:40:00,78.6,68.0,30.01,SSE,166,7.0,13.0,70,0.00,OVC,,0.00,354.3,WeatherDisplay:10.37,2013-04-29 02:40:00,
2013-04-29 12:45:00,79.5,68.0,30.00,SSE,167,9.0,13.0,68,0.00,OVC,,0.00,690.3,WeatherDisplay:10.37,2013-04-29 02:45:00,
2013-04-29 12:50:00,79.7,67.8,30.00,SSE,156,10.0,16.0,67,0.00,OVC,,0.00,542.8,WeatherDisplay:10.37,2013-04-29 02:50:00,
2013-04-29 12:55:00,79.7,67.8,30.00,SSE,153,10.0,15.0,67,0.00,OVC,,0.00,373.2,WeatherDisplay:10.37,2013-04-29 02:55:00,
2013-04-29 13:00:00,78.8,67.8,30.00,SSE,156,9.0,14.0,69,0.00,OVC,,0.00,257.2,WeatherDisplay:10.37,2013-04-29 03:00:00,
2013-04-29 13:05:00,78.2,67.6,30.00,SSE,168,9.0,15.0,70,0.00,OVC,,0.00,231.5,WeatherDisplay:10.37,2013-04-29 03:05:00,
2013-04-29 13:10:00,77.7,68.0,30.00,SSE,157,9.0,13.0,72,0.00,OVC,,0.00,305.1,WeatherDisplay:10.37,2013-04-29 03:10:00,
2013-04-29 13:15:00,78.1,68.7,30.00,SSE,155,8.0,13.0,73,0.00,OVC,,0.00,375.2,WeatherDisplay:10.37,2013-04-29 03:15:00,
2013-04-29 13:20:00,78.4,69.1,30.00,SSE,150,7.0,13.0,73,0.00,OVC,,0.00,549.9,WeatherDisplay:10.37,2013-04-29 03:20:00,
2013-04-29 13:25:00,78.8,68.6,29.99,SSE,155,10.0,16.0,71,0.00,OVC,,0.00,622.9,WeatherDisplay:10.37,2013-04-29 03:25:00,
2013-04-29 13:30:00,78.6,68.4,30.00,SE,139,13.0,16.0,71,0.00,OVC,,0.00,278.5,WeatherDisplay:10.37,2013-04-29 03:30:00,
2013-04-29 13:35:00,78.1,68.3,30.00,SSE,148,12.0,17.0,72,0.00,OVC,,0.00,375.0,WeatherDisplay:10.37,2013-04-29 03:35:00,
2013-04-29 13:40:00,78.1,68.7,29.99,SSE,164,10.0,17.0,73,0.00,OVC,,0.00,382.1,WeatherDisplay:10.37,2013-04-29 03:40:00,
2013-04-29 13:45:00,78.4,68.7,29.99,SSE,166,14.0,22.0,72,0.00,OVC,,0.00,264.8,WeatherDisplay:10.37,2013-04-29 03:45:00,
2013-04-29 13:50:00,78.1,68.3,29.99,SSE,165,13.0,17.0,72,0.00,OVC,,0.00,198.3,WeatherDisplay:10.37,2013-04-29 03:50:00,
2013-04-29 13:55:00,77.5,67.8,29.99,South,171,15.0,20.0,72,0.00,OVC,,0.00,195.5,WeatherDisplay:10.37,2013-04-29 03:55:00,
2013-04-29 14:00:00,77.4,68.0,29.99,SSE,160,14.0,20.0,73,0.00,OVC,,0.00,201.1,WeatherDisplay:10.37,2013-04-29 04:00:00,
2013-04-29 14:05:00,77.5,68.2,29.99,SE,139,12.0,17.0,73,0.00,OVC,,0.00,325.9,WeatherDisplay:10.37,2013-04-29 04:05:00,
2013-04-29 14:10:00,77.7,68.4,29.99,SSE,150,14.0,17.0,73,0.00,OVC,,0.00,254.6,WeatherDisplay:10.37,2013-04-29 04:10:00,
2013-04-29 14:15:00,77.7,68.8,29.99,SSE,156,7.0,16.0,74,0.00,OVC,,0.00,316.2,WeatherDisplay:10.37,2013-04-29 04:15:00,
2013-04-29 14:20:00,78.1,68.7,29.99,SE,144,9.0,16.0,73,0.00,OVC,,0.00,280.4,WeatherDisplay:10.37,2013-04-29 04:20:00,
2013-04-29 14:25:00,77.7,68.4,29.99,SSE,148,7.0,16.0,73,0.00,OVC,,0.00,195.6,WeatherDisplay:10.37,2013-04-29 04:25:00,
2013-04-29 14:30:00,77.5,68.6,30.00,SE,145,12.0,15.0,74,0.00,OVC,,0.00,198.1,WeatherDisplay:10.37,2013-04-29 04:30:00,
2013-04-29 14:40:00,78.1,68.7,29.99,SSE,157,9.0,13.0,73,0.00,OVC,,0.00,302.9,WeatherDisplay:10.37,2013-04-29 04:40:00,
2013-04-29 14:45:00,78.1,69.1,29.99,SE,144,8.0,11.0,74,0.00,OVC,,0.00,167.8,WeatherDisplay:10.37,2013-04-29 04:45:00,
2013-04-29 14:50:00,77.5,68.6,29.99,SE,145,8.0,14.0,74,0.00,OVC,,0.00,234.9,WeatherDisplay:10.37,2013-04-29 04:50:00,
2013-04-29 14:55:00,77.4,68.8,29.99,SSE,151,9.0,13.0,75,0.00,OVC,,0.00,321.2,WeatherDisplay:10.37,2013-04-29 04:55:00,
2013-04-29 15:00:00,78.3,69.7,30.00,SSE,149,9.0,14.0,75,0.00,OVC,,0.00,843.8,WeatherDisplay:10.37,2013-04-29 05:00:00,
2013-04-29 15:10:00,78.7,68.9,29.99,SSE,155,7.0,13.0,72,0.00,OVC,,0.00,352.8,WeatherDisplay:10.37,2013-04-29 05:10:00,
2013-04-29 15:15:00,78.4,69.0,29.99,SSE,162,9.0,13.0,73,0.00,OVC,,0.00,180.1,WeatherDisplay:10.37,2013-04-29 05:15:00,
2013-04-29 15:20:00,77.7,68.8,29.99,SSE,161,6.0,11.0,74,0.00,OVC,,0.00,96.3,WeatherDisplay:10.37,2013-04-29 05:20:00,
2013-04-29 15:30:00,77.2,68.6,29.99,SE,130,7.0,10.0,75,0.00,OVC,,0.00,68.4,WeatherDisplay:10.37,2013-04-29 05:30:00,
2013-04-29 15:35:00,76.9,68.7,29.99,ESE,123,10.0,16.0,76,0.00,OVC,,0.00,73.5,WeatherDisplay:10.37,2013-04-29 05:35:00,
2013-04-29 15:40:00,76.6,68.9,29.99,SSE,150,12.0,14.0,77,0.00,OVC,,0.00,118.6,WeatherDisplay:10.37,2013-04-29 05:40:00,
2013-04-29 15:45:00,76.5,68.7,30.00,SSE,153,13.0,20.0,77,0.00,OVC,,0.00,108.5,WeatherDisplay:10.37,2013-04-29 05:45:00,
2013-04-29 15:50:00,76.5,68.7,29.99,SSE,156,9.0,20.0,77,0.00,OVC,,0.00,201.1,WeatherDisplay:10.37,2013-04-29 05:50:00,
2013-04-29 15:55:00,76.8,69.1,30.00,SSE,153,8.0,12.0,77,0.00,OVC,,0.00,175.7,WeatherDisplay:10.37,2013-04-29 05:55:00,
2013-04-29 16:00:00,77.0,68.9,30.00,SSE,147,9.0,15.0,76,0.00,OVC,,0.00,140.3,WeatherDisplay:10.37,2013-04-29 06:00:00,
2013-04-29 16:05:00,76.8,69.0,30.00,SSE,163,10.0,20.0,77,0.00,OVC,,0.00,142.7,WeatherDisplay:10.37,2013-04-29 06:05:00,
2013-04-29 16:10:00,76.8,69.0,30.00,SSE,157,7.0,15.0,77,0.00,OVC,,0.00,227.2,WeatherDisplay:10.37,2013-04-29 06:10:00,
2013-04-29 16:15:00,77.4,68.8,30.00,SSE,151,8.0,13.0,75,0.00,OVC,,0.00,473.5,WeatherDisplay:10.37,2013-04-29 06:15:00,
2013-04-29 16:20:00,77.7,69.2,30.00,SSE,161,10.0,14.0,75,0.00,OVC,,0.00,242.3,WeatherDisplay:10.37,2013-04-29 06:20:00,
2013-04-29 16:25:00,77.7,68.8,30.00,SSE,154,5.0,13.0,74,0.00,OVC,,0.00,171.7,WeatherDisplay:10.37,2013-04-29 06:25:00,
2013-04-29 16:30:00,77.6,68.7,30.00,SE,134,8.0,11.0,74,0.00,OVC,,0.00,134.3,WeatherDisplay:10.37,2013-04-29 06:30:00,
2013-04-29 16:35:00,77.5,69.0,30.00,SSE,151,5.0,10.0,75,0.00,OVC,,0.00,76.0,WeatherDisplay:10.37,2013-04-29 06:35:00,
2013-04-29 16:40:00,77.4,68.8,30.00,South,171,6.0,10.0,75,0.00,OVC,,0.00,143.0,WeatherDisplay:10.37,2013-04-29 06:40:00,
2013-04-29 16:45:00,77.5,69.0,30.00,SSE,161,6.0,9.0,75,0.00,OVC,,0.00,522.1,WeatherDisplay:10.37,2013-04-29 06:45:00,
2013-04-29 16:50:00,78.3,69.3,30.01,SSE,152,5.0,10.0,74,0.00,OVC,,0.00,369.3,WeatherDisplay:10.37,2013-04-29 06:50:00,
2013-04-29 16:55:00,78.6,69.2,30.01,SSE,151,8.0,10.0,73,0.00,OVC,,0.00,58.4,WeatherDisplay:10.37,2013-04-29 06:55:00,
2013-04-29 17:00:00,77.7,68.8,30.01,SE,145,5.0,10.0,74,0.00,CLR,,0.00,57.8,WeatherDisplay:10.37,2013-04-29 07:00:00,
2013-04-29 17:05:00,77.0,68.5,30.01,SE,142,2.0,7.0,75,0.00,CLR,,0.00,55.7,WeatherDisplay:10.37,2013-04-29 07:05:00,
2013-04-29 17:10:00,76.8,69.4,30.01,SE,139,3.0,6.0,78,0.00,CLR,,0.00,36.1,WeatherDisplay:10.37,2013-04-29 07:10:00,
2013-04-29 17:15:00,76.6,69.2,30.01,SSE,161,3.0,5.0,78,0.00,CLR,,0.00,53.0,WeatherDisplay:10.37,2013-04-29 07:15:00,
2013-04-29 17:20:00,76.5,69.1,30.01,SSE,153,3.0,5.0,78,0.00,CLR,,0.00,47.5,WeatherDisplay:10.37,2013-04-29 07:20:00,
2013-04-29 17:30:00,76.5,69.5,30.02,SE,129,7.0,8.0,79,0.00,CLR,,0.00,32.6,WeatherDisplay:10.37,2013-04-29 07:30:00,
2013-04-29 17:35:00,76.1,68.7,30.02,SE,130,5.0,8.0,78,0.00,CLR,,0.00,36.7,WeatherDisplay:10.37,2013-04-29 07:35:00,
2013-04-29 17:40:00,76.1,69.1,30.02,ESE,122,3.0,8.0,79,0.00,CLR,,0.00,53.8,WeatherDisplay:10.37,2013-04-29 07:40:00,
2013-04-29 17:45:00,76.1,69.1,30.03,SE,136,5.0,8.0,79,0.00,CLR,,0.00,22.0,WeatherDisplay:10.37,2013-04-29 07:45:00,
2013-04-29 17:50:00,75.7,68.8,30.02,SSE,147,5.0,8.0,79,0.00,CLR,,0.00,13.2,WeatherDisplay:10.37,2013-04-29 07:50:00,
2013-04-29 17:55:00,75.4,68.8,30.03,SSE,157,3.0,6.0,80,0.00,CLR,,0.00,10.8,WeatherDisplay:10.37,2013-04-29 07:55:00,
2013-04-29 18:00:00,75.0,69.1,30.02,SSE,147,5.0,8.0,82,0.00,CLR,,0.00,3.6,WeatherDisplay:10.37,2013-04-29 08:00:00,
2013-04-29 18:05:00,74.8,69.0,30.02,SSE,150,3.0,9.0,82,0.00,CLR,,0.00,1.1,WeatherDisplay:10.37,2013-04-29 08:05:00,
2013-04-29 18:10:00,74.5,69.0,30.03,SSE,151,3.0,6.0,83,0.00,CLR,,0.00,0.0,WeatherDisplay:10.37,2013-04-29 08:10:00,
2013-04-29 18:15:00,74.5,69.0,30.02,SSE,150,3.0,7.0,83,0.00,CLR,,0.00,0.0,WeatherDisplay:10.37,2013-04-29 08:15:00,
2013-04-29 18:20:00,74.3,69.1,30.03,SSE,152,3.0,6.0,84,0.00,CLR,,0.00,0.0,WeatherDisplay:10.37,2013-04-29 08:20:00,
2013-04-29 18:25:00,74.1,69.0,30.03,SSE,153,3.0,6.0,84,0.00,CLR,,0.00,0.0,WeatherDisplay:10.37,2013-04-29 08:25:00,
2013-04-29 18:30:00,73.9,68.8,30.03,SSE,158,5.0,8.0,84,0.00,CLR,,0.00,0.0,WeatherDisplay:10.37,2013-04-29 08:30:00,
2013-04-29 18:35:00,73.9,69.1,30.03,SSE,161,3.0,6.0,85,0.00,CLR,,0.00,0.0,WeatherDisplay:10.37,2013-04-29 08:35:00,
2013-04-29 18:40:00,73.8,69.0,30.03,SSE,149,3.0,6.0,85,0.00,CLR,,0.00,0.0,WeatherDisplay:10.37,2013-04-29 08:40:00,
2013-04-29 18:45:00,73.8,69.0,30.03,SE,143,2.0,6.0,85,0.00,CLR,,0.00,0.0,WeatherDisplay:10.37,2013-04-29 08:45:00,
2013-04-29 18:50:00,73.4,68.6,30.03,SE,139,2.0,4.0,85,0.00,CLR,,0.00,0.0,WeatherDisplay:10.37,2013-04-29 08:50:00,
2013-04-29 18:55:00,73.4,69.0,30.03,SE,136,2.0,4.0,86,0.00,CLR,,0.00,0.0,WeatherDisplay:10.37,2013-04-29 08:55:00,
2013-04-29 19:00:00,73.2,68.4,30.03,SE,135,2.0,3.0,85,0.00,CLR,,0.00,0.0,WeatherDisplay:10.37,2013-04-29 09:00:00,
2013-04-29 19:05:00,73.2,68.4,30.03,SE,144,2.0,4.0,85,0.00,CLR,,0.00,0.0,WeatherDisplay:10.37,2013-04-29 09:05:00,
2013-04-29 19:10:00,73.2,68.4,30.03,SSE,154,3.0,5.0,85,0.00,CLR,,0.00,0.0,WeatherDisplay:10.37,2013-04-29 09:10:00,
2013-04-29 19:15:00,73.4,69.0,30.03,SSE,154,6.0,8.0,86,0.00,CLR,,0.00,0.0,WeatherDisplay:10.37,2013-04-29 09:15:00,
2013-04-29 19:20:00,73.2,68.1,30.03,SSE,161,3.0,8.0,84,0.00,CLR,,0.00,0.0,WeatherDisplay:10.37,2013-04-29 09:20:00,
2013-04-29 19:25:00,72.9,68.1,30.03,SSE,163,1.0,6.0,85,0.00,CLR,,0.00,0.0,WeatherDisplay:10.37,2013-04-29 09:25:00,
2013-04-29 19:30:00,72.5,67.7,30.04,South,190,2.0,4.0,85,0.00,CLR,,0.00,0.0,WeatherDisplay:10.37,2013-04-29 09:30:00,
2013-04-29 19:35:00,72.1,67.7,30.04,SSW,199,2.0,4.0,86,0.00,CLR,,0.00,0.0,WeatherDisplay:10.37,2013-04-29 09:35:00,
2013-04-29 19:40:00,72.0,67.9,30.04,South,177,3.0,6.0,87,0.00,CLR,,0.00,0.0,WeatherDisplay:10.37,2013-04-29 09:40:00,
2013-04-29 19:45:00,71.8,67.8,30.04,SSE,154,2.0,6.0,87,0.00,CLR,,0.00,0.0,WeatherDisplay:10.37,2013-04-29 09:45:00,
2013-04-29 19:50:00,71.8,68.0,30.05,SE,135,1.0,6.0,88,0.00,CLR,,0.00,0.0,WeatherDisplay:10.37,2013-04-29 09:50:00,
2013-04-29 19:55:00,71.6,67.9,30.04,East,101,1.0,3.0,88,0.00,CLR,,0.00,0.0,WeatherDisplay:10.37,2013-04-29 09:55:00,
2013-04-29 20:00:00,71.4,68.0,30.05,ESE,105,1.0,2.0,89,0.00,CLR,,0.00,0.0,WeatherDisplay:10.37,2013-04-29 10:00:00,
2013-04-29 20:05:00,71.1,67.7,30.05,SSE,162,0.0,2.0,89,0.00,CLR,,0.00,0.0,WeatherDisplay:10.37,2013-04-29 10:05:00,
2013-04-29 20:10:00,70.6,67.5,30.05,South,179,0.0,1.0,90,0.00,CLR,,0.00,0.0,WeatherDisplay:10.37,2013-04-29 10:10:00,
2013-04-29 20:15:00,70.2,67.1,30.05,SSW,208,1.0,2.0,90,0.00,CLR,,0.00,0.0,WeatherDisplay:10.37,2013-04-29 10:15:00,
2013-04-29 20:20:00,70.0,67.6,30.05,SW,221,1.0,3.0,92,0.00,CLR,,0.00,0.0,WeatherDisplay:10.37,2013-04-29 10:20:00,
2013-04-29 20:25:00,70.2,67.7,30.05,SW,218,1.0,4.0,92,0.00,CLR,,0.00,0.0,WeatherDisplay:10.37,2013-04-29 10:25:00,
2013-04-29 20:30:00,70.3,67.9,30.05,WSW,238,0.0,2.0,92,0.00,CLR,,0.00,0.0,WeatherDisplay:10.37,2013-04-29 10:30:00,
2013-04-29 20:35:00,70.3,67.9,30.05,West,270,0.0,1.0,92,0.00,CLR,,0.00,0.0,WeatherDisplay:10.37,2013-04-29 10:35:00,
2013-04-29 20:40:00,70.3,67.9,30.05,West,270,0.0,0.0,92,0.00,CLR,,0.00,0.0,WeatherDisplay:10.37,2013-04-29 10:40:00,
2013-04-29 20:45:00,70.3,67.9,30.05,West,270,0.0,0.0,92,0.00,CLR,,0.00,0.0,WeatherDisplay:10.37,2013-04-29 10:45:00,
2013-04-29 20:50:00,70.5,68.1,30.05,West,270,1.0,2.0,92,0.00,CLR,,0.00,0.0,WeatherDisplay:10.37,2013-04-29 10:50:00,
2013-04-29 20:55:00,70.7,68.3,30.06,West,270,1.0,3.0,92,0.00,CLR,,0.00,0.0,WeatherDisplay:10.37,2013-04-29 10:55:00,
2013-04-29 21:00:00,70.7,68.3,30.05,WSW,247,1.0,3.0,92,0.00,CLR,,0.00,0.0,WeatherDisplay:10.37,2013-04-29 11:00:00,
2013-04-29 21:05:00,70.9,68.4,30.05,WSW,246,1.0,5.0,92,0.00,CLR,,0.00,0.0,WeatherDisplay:10.37,2013-04-29 11:05:00,
2013-04-29 21:10:00,70.9,68.4,30.06,SW,221,1.0,2.0,92,0.00,CLR,,0.00,0.0,WeatherDisplay:10.37,2013-04-29 11:10:00,
2013-04-29 21:15:00,70.9,68.4,30.06,South,180,0.0,1.0,92,0.00,CLR,,0.00,0.0,WeatherDisplay:10.37,2013-04-29 11:15:00,
2013-04-29 21:20:00,70.9,68.4,30.06,South,180,0.0,1.0,92,0.00,CLR,,0.00,0.0,WeatherDisplay:10.37,2013-04-29 11:20:00,
2013-04-29 21:25:00,70.9,68.4,30.06,South,180,0.0,2.0,92,0.00,CLR,,0.00,0.0,WeatherDisplay:10.37,2013-04-29 11:25:00,
2013-04-29 21:30:00,70.9,68.4,30.05,South,180,0.0,2.0,92,0.00,CLR,,0.00,0.0,WeatherDisplay:10.37,2013-04-29 11:30:00,
2013-04-29 21:35:00,71.1,68.6,30.05,South,180,1.0,3.0,92,0.00,CLR,,0.00,0.0,WeatherDisplay:10.37,2013-04-29 11:35:00,
2013-04-29 21:40:00,71.1,68.6,30.05,South,180,0.0,3.0,92,0.00,CLR,,0.00,0.0,WeatherDisplay:10.37,2013-04-29 11:40:00,
2013-04-29 21:45:00,70.9,68.4,30.05,SSW,194,1.0,3.0,92,0.00,CLR,,0.00,0.0,WeatherDisplay:10.37,2013-04-29 11:45:00,
2013-04-29 21:50:00,70.9,68.4,30.04,South,188,2.0,4.0,92,0.00,CLR,,0.00,0.0,WeatherDisplay:10.37,2013-04-29 11:50:00,
2013-04-29 21:55:00,71.0,68.6,30.05,South,180,2.0,4.0,92,0.00,CLR,,0.00,0.0,WeatherDisplay:10.37,2013-04-29 11:55:00,
2013-04-29 22:00:00,70.9,68.8,30.05,South,186,1.0,3.0,93,0.00,CLR,,0.00,0.0,WeatherDisplay:10.37,2013-04-29 12:00:00,
2013-04-29 22:05:00,71.0,68.9,30.04,South,178,3.0,6.0,93,0.00,CLR,,0.00,0.0,WeatherDisplay:10.37,2013-04-29 12:05:00,
2013-04-29 22:10:00,71.1,68.9,30.04,South,180,5.0,6.0,93,0.00,CLR,,0.00,0.0,WeatherDisplay:10.37,2013-04-29 12:10:00,
2013-04-29 22:15:00,71.1,68.9,30.04,South,186,3.0,5.0,93,0.00,CLR,,0.00,0.0,WeatherDisplay:10.37,2013-04-29 12:15:00,
2013-04-29 22:20:00,71.1,68.9,30.04,South,190,3.0,6.0,93,0.00,CLR,,0.00,0.0,WeatherDisplay:10.37,2013-04-29 12:20:00,
2013-04-29 22:25:00,71.1,68.9,30.04,South,183,2.0,5.0,93,0.00,CLR,,0.00,0.0,WeatherDisplay:10.37,2013-04-29 12:25:00,
2013-04-29 22:30:00,71.1,68.9,30.05,South,172,3.0,4.0,93,0.00,CLR,,0.00,0.0,WeatherDisplay:10.37,2013-04-29 12:30:00,
2013-04-29 22:35:00,71.2,69.1,30.05,South,176,2.0,5.0,93,0.00,CLR,,0.00,0.0,WeatherDisplay:10.37,2013-04-29 12:35:00,
2013-04-29 22:40:00,71.1,68.9,30.05,South,180,2.0,3.0,93,0.00,CLR,,0.00,0.0,WeatherDisplay:10.37,2013-04-29 12:40:00,
2013-04-29 22:45:00,71.1,68.9,30.05,SSW,203,3.0,5.0,93,0.00,CLR,,0.00,0.0,WeatherDisplay:10.37,2013-04-29 12:45:00,
2013-04-29 22:50:00,71.1,68.9,30.04,SSW,203,1.0,6.0,93,0.00,CLR,,0.00,0.0,WeatherDisplay:10.37,2013-04-29 12:50:00,
2013-04-29 22:55:00,71.1,68.9,30.04,SSW,192,2.0,4.0,93,0.00,CLR,,0.00,0.0,WeatherDisplay:10.37,2013-04-29 12:55:00,
2013-04-29 23:00:00,70.9,68.8,30.04,SSW,205,1.0,3.0,93,0.00,CLR,,0.00,0.0,WeatherDisplay:10.37,2013-04-29 13:00:00,
2013-04-29 23:05:00,70.9,68.8,30.04,SW,226,0.0,2.0,93,0.00,CLR,,0.00,0.0,WeatherDisplay:10.37,2013-04-29 13:05:00,
2013-04-29 23:10:00,70.8,68.7,30.03,WSW,237,1.0,2.0,93,0.00,CLR,,0.00,0.0,WeatherDisplay:10.37,2013-04-29 13:10:00,
2013-04-29 23:15:00,70.7,68.6,30.03,West,265,2.0,3.0,93,0.00,CLR,,0.00,0.0,WeatherDisplay:10.37,2013-04-29 13:15:00,
2013-04-29 23:20:00,70.5,68.4,30.03,West,263,0.0,3.0,93,0.00,CLR,,0.00,0.0,WeatherDisplay:10.37,2013-04-29 13:20:00,
2013-04-29 23:25:00,70.5,68.4,30.03,WSW,258,0.0,2.0,93,0.00,CLR,,0.00,0.0,WeatherDisplay:10.37,2013-04-29 13:25:00,
2013-04-29 23:30:00,70.5,68.4,30.03,West,269,0.0,0.0,93,0.00,CLR,,0.00,0.0,WeatherDisplay:10.37,2013-04-29 13:30:00,
2013-04-29 23:35:00,70.5,68.7,30.03,NNW,347,2.0,3.0,94,0.00,CLR,,0.00,0.0,WeatherDisplay:10.37,2013-04-29 13:35:00,
2013-04-29 23:40:00,70.5,68.7,30.03,NE,39,1.0,4.0,94,0.00,CLR,,0.00,0.0,WeatherDisplay:10.37,2013-04-29 13:40:00,
2013-04-29 23:45:00,70.5,68.7,30.03,NE,45,1.0,3.0,94,0.00,CLR,,0.00,0.0,WeatherDisplay:10.37,2013-04-29 13:45:00,
2013-04-29 23:50:00,70.5,69.0,30.03,NE,45,1.0,3.0,95,0.00,CLR,,0.00,0.0,WeatherDisplay:10.37,2013-04-29 13:50:00,
2013-04-29 23:55:00,70.3,68.8,30.03,NE,50,1.0,3.0,95,0.00,CLR,,0.00,0.0,WeatherDisplay:10.37,2013-04-29 13:55:00,